Weather History for Gilze-Rijen, Netherlands

Change the Weather History Date:

Saturday, February 23, 2013

  Actual Average Record
Temperature  
Mean Temperature 28 °F -  
Max Temperature 33 °F 48 °F 55 °F (2003)
Min Temperature 23 °F 35 °F 23 °F (2013)
Degree Days  
Heating Degree Days 37    
Moisture  
Dew Point 19 °F    
Average Humidity 73    
Maximum Humidity 86    
Minimum Humidity 60    
Precipitation  
Precipitation 0.00 in - - ()
Sea Level Pressure  
Sea Level Pressure 30.05 in    
Wind  
Wind Speed 10 mph ()    
Max Wind Speed 18 mph    
Max Gust Speed -    
Visibility 5.2 miles    
Events Snow    
Averages and records for this station are not official NWS values.
T = Trace of Precipitation, MM = Missing Value Source: Averaged Metar Reports

Daily Weather History Graph

Daily Weather History Graph

Search for Another Location

Airport:

Trip Planner

Search our weather history database for the weather conditions in past years. The results will help you decide how hot, cold, wet, or windy it might be!

Date:

Astronomy

Feb. 23, 2013 Rise Set
Actual Time 7:38 AM CET 6:09 PM CET
Civil Twilight 7:04 AM CET 6:43 PM CET
Nautical Twilight 6:25 AM CET 7:22 PM CET
Astronomical Twilight 5:46 AM CET 8:01 PM CET
Moon 3:55 PM CET 6:02 AM CET
Length of Visible Light 11h 39m
Length of Day
10h 31m
Waxing Gibbous, 94% of the Moon is Illuminated
Feb 23
Waxing Gibbous
Feb 25
Full
Mar 4
Last Quarter
Mar 11
New
Mar 19
First Quarter

Hourly Weather History & Observations

Time (CET) Temp. Windchill Dew Point Humidity Pressure Visibility Wind Dir Wind Speed Gust Speed Precip Events Conditions
12:25 AM 24.8 °F 16.1 °F 17.6 °F 74% 30.06 in 5.6 mi NE 8.1 mph - N/A   Haze
12:55 AM 23.0 °F 13.9 °F 17.6 °F 80% 30.06 in 5.6 mi NE 8.1 mph - N/A   Haze
1:25 AM 23.0 °F 13.9 °F 17.6 °F 80% 30.06 in 5.0 mi NE 8.1 mph - N/A   Haze
1:37 AM 23.0 °F 13.9 °F 17.6 °F 80% 30.06 in 4.3 mi NE 8.1 mph - N/A   Haze
1:41 AM 23.0 °F 13.9 °F 17.6 °F 80% 30.06 in 5.0 mi NE 8.1 mph - N/A   Haze
1:45 AM 23.0 °F 13.9 °F 17.6 °F 80% 30.06 in 4.3 mi NE 8.1 mph - N/A   Haze
1:55 AM 23.0 °F 13.9 °F 17.6 °F 80% 30.06 in 5.0 mi NE 8.1 mph - N/A   Haze
2:00 AM 23.0 °F 13.1 °F 17.6 °F 80% 30.06 in 4.3 mi NE 9.2 mph - N/A   Haze
2:04 AM 23.0 °F 13.1 °F 17.6 °F 80% 30.06 in 5.0 mi NE 9.2 mph - N/A   Haze
2:10 AM 23.0 °F 13.1 °F 17.6 °F 80% 30.06 in 4.3 mi NE 9.2 mph - N/A   Haze
2:14 AM 23.0 °F 13.1 °F 17.6 °F 80% 30.06 in 5.0 mi NE 9.2 mph - N/A   Haze
2:20 AM 23.0 °F 13.1 °F 17.6 °F 80% 30.06 in 4.3 mi NE 9.2 mph - N/A   Haze
2:25 AM 23.0 °F 13.9 °F 17.6 °F 80% 30.06 in 4.3 mi NE 8.1 mph - N/A   Haze
2:32 AM 24.8 °F 14.6 °F 19.4 °F 80% 30.04 in 5.0 mi NE 10.4 mph - N/A   Haze
2:39 AM 24.8 °F 14.6 °F 19.4 °F 80% 30.04 in 4.3 mi NE 10.4 mph - N/A   Haze
2:43 AM 24.8 °F 14.6 °F 19.4 °F 80% 30.04 in 5.0 mi NE 10.4 mph - N/A   Haze
2:47 AM 24.8 °F 14.0 °F 19.4 °F 80% 30.04 in 4.3 mi NE 11.5 mph - N/A   Haze
2:55 AM 24.8 °F 14.0 °F 19.4 °F 80% 30.04 in 4.3 mi NE 11.5 mph - N/A   Haze
3:00 AM 24.8 °F 14.0 °F 19.4 °F 80% 30.04 in 5.0 mi NE 11.5 mph - N/A   Haze
3:05 AM 24.8 °F 14.0 °F 19.4 °F 80% 30.04 in 4.3 mi NE 11.5 mph - N/A   Haze
3:21 AM 24.8 °F 14.0 °F 17.6 °F 74% 30.04 in 5.0 mi NE 11.5 mph - N/A   Haze
3:25 AM 24.8 °F 14.0 °F 17.6 °F 74% 30.04 in 4.3 mi NE 11.5 mph - N/A   Haze
3:34 AM 24.8 °F 13.4 °F 17.6 °F 74% 30.04 in 5.0 mi NE 12.7 mph - N/A   Haze
3:47 AM 24.8 °F 13.4 °F 17.6 °F 74% 30.04 in 5.0 mi NE 12.7 mph - N/A   Haze
3:55 AM 24.8 °F 14.0 °F 17.6 °F 74% 30.04 in 5.0 mi NE 11.5 mph - N/A   Haze
3:59 AM 23.0 °F 11.7 °F 17.6 °F 80% 30.04 in 4.3 mi NE 11.5 mph - N/A   Haze
4:04 AM 23.0 °F 12.4 °F 17.6 °F 80% 30.04 in 5.0 mi NE 10.4 mph - N/A   Haze
4:08 AM 23.0 °F 11.7 °F 17.6 °F 80% 30.04 in 4.3 mi NE 11.5 mph - N/A   Haze
4:25 AM 23.0 °F 12.4 °F 17.6 °F 80% 30.04 in 4.3 mi NE 10.4 mph - N/A   Haze
4:55 AM 23.0 °F 13.1 °F 17.6 °F 80% 30.04 in 4.3 mi NE 9.2 mph - N/A   Haze
5:25 AM 23.0 °F 13.1 °F 17.6 °F 80% 30.04 in 4.3 mi NE 9.2 mph - N/A   Haze
5:55 AM 23.0 °F 13.1 °F 17.6 °F 80% 30.04 in 4.3 mi NE 9.2 mph - N/A   Haze
6:25 AM 23.0 °F 12.4 °F 17.6 °F 80% 30.04 in 4.3 mi NNE 10.4 mph - N/A   Haze
6:55 AM 23.0 °F 12.4 °F 17.6 °F 80% 30.04 in 4.3 mi NE 10.4 mph - N/A   Haze
7:25 AM 23.0 °F 12.4 °F 17.6 °F 80% 30.04 in 4.3 mi NE 10.4 mph - N/A   Haze
7:55 AM 24.8 °F 13.4 °F 17.6 °F 74% 30.04 in 4.3 mi NNE 12.7 mph - N/A   Haze
8:25 AM 24.8 °F 14.6 °F 17.6 °F 74% 30.04 in 4.3 mi NNE 10.4 mph - N/A   Haze
8:55 AM 24.8 °F 14.6 °F 19.4 °F 80% 30.06 in 4.3 mi NNE 10.4 mph - N/A   Haze
9:25 AM 26.6 °F 14.7 °F 19.4 °F 74% 30.06 in 5.0 mi NE 15.0 mph - N/A   Haze
9:55 AM 28.4 °F 16.2 °F 19.4 °F 69% 30.06 in 5.6 mi NE 17.3 mph - N/A   Haze
10:25 AM 28.4 °F 16.6 °F 19.4 °F 69% 30.06 in 6.2 mi NE 16.1 mph - N/A   Overcast
10:55 AM 30.2 °F 18.5 °F 19.4 °F 64% 30.04 in 6.2 mi NE 17.3 mph - N/A   Overcast
11:25 AM 30.2 °F 18.1 °F 19.4 °F 64% 30.04 in 6.2 mi NE 18.4 mph - N/A   Overcast
11:55 AM 30.2 °F 18.5 °F 19.4 °F 64% 30.04 in 6.2 mi NE 17.3 mph - N/A   Mostly Cloudy
12:25 PM 30.2 °F 19.3 °F 19.4 °F 64% 30.04 in 6.2 mi NE 15.0 mph - N/A   Overcast
12:55 PM 30.2 °F 18.1 °F 21.2 °F 69% 30.04 in 6.2 mi NE 18.4 mph - N/A Snow Light Snow
1:25 PM 32.0 °F 21.2 °F 21.2 °F 64% 30.04 in 6.2 mi NE 16.1 mph - N/A   Overcast
1:55 PM 32.0 °F 20.8 °F 21.2 °F 64% 30.04 in 6.2 mi NE 17.3 mph - N/A   Overcast
2:25 PM 32.0 °F 21.6 °F 21.2 °F 64% 30.04 in 6.2 mi NE 15.0 mph - N/A   Overcast
2:55 PM 32.0 °F 20.8 °F 21.2 °F 64% 30.04 in 6.2 mi NE 17.3 mph - N/A   Overcast
3:25 PM 33.8 °F 23.2 °F 21.2 °F 60% 30.04 in 6.2 mi NE 17.3 mph - N/A   Overcast
3:55 PM 33.8 °F 23.2 °F 21.2 °F 60% 30.01 in 6.2 mi NE 17.3 mph - N/A   Overcast
4:25 PM 33.8 °F 23.2 °F 21.2 °F 60% 30.04 in 6.2 mi NE 17.3 mph - N/A   Overcast
4:55 PM 33.8 °F 24.3 °F 21.2 °F 60% 30.04 in 6.2 mi NNE 13.8 mph - N/A   Overcast
5:25 PM 32.0 °F 22.1 °F 21.2 °F 64% 30.04 in 6.2 mi NNE 13.8 mph - N/A   Overcast
5:55 PM 32.0 °F 22.5 °F 21.2 °F 64% 30.04 in 6.2 mi NNE 12.7 mph - N/A   Overcast
6:25 PM 32.0 °F 22.1 °F 21.2 °F 64% 30.04 in 6.2 mi NE 13.8 mph - N/A   Overcast
6:55 PM 32.0 °F 22.1 °F 21.2 °F 64% 30.04 in 6.2 mi NNE 13.8 mph - N/A   Overcast
7:25 PM 32.0 °F 22.1 °F 21.2 °F 64% 30.04 in 6.2 mi NNE 13.8 mph - N/A   Overcast
7:55 PM 32.0 °F 23.0 °F 21.2 °F 64% 30.04 in 6.2 mi NNE 11.5 mph - N/A   Overcast
8:25 PM 32.0 °F 23.6 °F 21.2 °F 64% 30.04 in 6.2 mi NNE 10.4 mph - N/A   Overcast
8:55 PM 32.0 °F 23.6 °F 23.0 °F 69% 30.04 in 6.2 mi NNE 10.4 mph - N/A   Overcast
9:25 PM 32.0 °F 23.6 °F 23.0 °F 69% 30.04 in 6.2 mi NNE 10.4 mph - N/A   Overcast
9:55 PM 32.0 °F 22.5 °F 23.0 °F 69% 30.04 in 6.2 mi NNE 12.7 mph - N/A   Overcast
10:25 PM 32.0 °F 22.5 °F 23.0 °F 69% 30.06 in 6.2 mi NNE 12.7 mph - N/A   Overcast
10:55 PM 32.0 °F 23.0 °F 23.0 °F 69% 30.06 in 6.2 mi NNE 11.5 mph - N/A   Overcast
11:25 PM 32.0 °F 23.0 °F 24.8 °F 75% 30.06 in 6.2 mi NNE 11.5 mph - N/A   Overcast
11:55 PM 30.2 °F 20.8 °F 26.6 °F 86% 30.06 in 3.7 mi NNE 11.5 mph - N/A Snow Light Snow